Location: Newark
(0.5300°S, 127.4800°E)
Time: 05:37:53
(UTC+00:00)

Vanguard 3 - Pass Details

Date: 21 September 2019
Orbit: 508 x 3262 km, 33.3° (Epoch: 20 October)

Event Time Altitude Azimuth Distance (km) Brightness Sun altitude
Rises 22:01:00 0° 271° (W) 4,623 10.3 9.5°
Reaches altitude 10° 22:04:11 10° 282° (WNW) 4,005 10.1 10.3°
Maximum altitude 22:13:44 30° 339° (NNW) 3,593 10.4 12.7°
Drops below altitude 10° 22:27:50 10° 32° (NNE) 5,904 12.1 16.2°
Sets 22:34:04 0° 42° (NE) 7,141 12.6 17.7°
